Back to catalog

SL-8 DEB

AliveLEO
NORAD 22025·DEBRIS·🇷🇺 Russia

Launched Feb 12, 1991 from Plesetsk Cosmodrome

Loading…

Next Passes (next 24 hours)

TLE

FreshSource: Space-Track

Epoch: Sep 13, 2026, 16:35 UTC

1 22025U 91009CJ  26256.69126725  .00000003  00000-0  15644-3 0  9995
2 22025  73.9433 347.6174 0143193 239.9931 273.6159 12.31725095596245

Track SL-8 DEB in real time with AllMySat

Download on the App Store